TimeMST,TemperatureF,Dew PointF,Humidity,Sea Level PressureIn,VisibilityMPH,Wind Direction,Wind SpeedMPH,Gust SpeedMPH,PrecipitationIn,Events,Conditions,WindDirDegrees,DateUTC
12:15 AM,51.8,26.6,38,30.04,10.0,WSW,19.6,33.4,N/A,,Clear,250,2012-11-20 07:15:00
12:35 AM,51.8,26.6,38,30.03,10.0,WSW,17.3,31.1,N/A,,Clear,240,2012-11-20 07:35:00
12:55 AM,51.8,26.6,38,30.02,10.0,WSW,17.3,25.3,N/A,,Clear,250,2012-11-20 07:55:00
1:15 AM,50.0,28.4,43,30.03,10.0,WSW,11.5,20.7,N/A,,Clear,250,2012-11-20 08:15:00
1:35 AM,51.8,26.6,38,30.02,10.0,WSW,12.7,23.0,N/A,,Clear,250,2012-11-20 08:35:00
1:55 AM,51.8,26.6,38,30.02,10.0,West,15.0,26.5,N/A,,Clear,260,2012-11-20 08:55:00
2:15 AM,51.8,26.6,38,30.02,10.0,WSW,17.3,29.9,N/A,,Clear,250,2012-11-20 09:15:00
2:35 AM,51.8,28.4,41,30.03,10.0,West,16.1,25.3,N/A,,Clear,260,2012-11-20 09:35:00
3:15 AM,50.0,28.4,43,30.03,10.0,SW,18.4,-,N/A,,Clear,230,2012-11-20 10:15:00
3:35 AM,50.0,28.4,43,30.03,10.0,SW,17.3,-,N/A,,Clear,220,2012-11-20 10:35:00
3:55 AM,50.0,28.4,43,30.02,10.0,SSW,13.8,20.7,N/A,,Clear,210,2012-11-20 10:55:00
4:15 AM,50.0,28.4,43,30.02,10.0,WSW,16.1,21.9,N/A,,Clear,240,2012-11-20 11:15:00
4:35 AM,51.8,28.4,41,30.02,10.0,WSW,16.1,24.2,N/A,,Clear,240,2012-11-20 11:35:00
4:55 AM,51.8,28.4,41,30.02,10.0,WSW,12.7,24.2,N/A,,Clear,240,2012-11-20 11:55:00
5:15 AM,51.8,30.2,44,30.02,10.0,WSW,16.1,21.9,N/A,,Clear,250,2012-11-20 12:15:00
5:35 AM,51.8,28.4,41,30.03,10.0,SSW,15.0,26.5,N/A,,Clear,210,2012-11-20 12:35:00
5:55 AM,48.2,28.4,46,30.02,10.0,SSW,18.4,-,N/A,,Clear,210,2012-11-20 12:55:00
6:15 AM,50.0,28.4,43,30.02,10.0,SSW,21.9,29.9,N/A,,Clear,200,2012-11-20 13:15:00
6:35 AM,50.0,30.2,47,30.03,10.0,SSW,15.0,25.3,N/A,,Clear,210,2012-11-20 13:35:00
6:55 AM,48.2,30.2,50,30.02,10.0,SSW,13.8,-,N/A,,Clear,210,2012-11-20 13:55:00
7:15 AM,51.8,30.2,44,30.02,10.0,WSW,12.7,26.5,N/A,,Clear,240,2012-11-20 14:15:00
7:35 AM,51.8,30.2,44,30.03,10.0,SSW,16.1,19.6,N/A,,Clear,210,2012-11-20 14:35:00
7:55 AM,51.8,30.2,44,30.03,10.0,SSW,19.6,-,N/A,,Clear,200,2012-11-20 14:55:00
8:15 AM,51.8,30.2,44,30.05,10.0,SSW,17.3,23.0,N/A,,Clear,200,2012-11-20 15:15:00
8:35 AM,53.6,30.2,41,30.04,10.0,SW,15.0,19.6,N/A,,Clear,230,2012-11-20 15:35:00
8:55 AM,53.6,30.2,41,30.04,10.0,South,13.8,-,N/A,,Clear,190,2012-11-20 15:55:00
9:15 AM,53.6,30.2,41,30.05,10.0,South,15.0,-,N/A,,Clear,180,2012-11-20 16:15:00
9:35 AM,53.6,28.4,38,30.05,10.0,SSE,9.2,-,N/A,,Scattered Clouds,150,2012-11-20 16:35:00
9:55 AM,53.6,28.4,38,30.05,10.0,South,11.5,-,N/A,,Partly Cloudy,190,2012-11-20 16:55:00
10:15 AM,55.4,26.6,33,30.05,10.0,South,11.5,-,N/A,,Clear,180,2012-11-20 17:15:00
10:35 AM,55.4,28.4,36,30.05,10.0,South,13.8,-,N/A,,Clear,170,2012-11-20 17:35:00
10:55 AM,57.2,28.4,33,30.04,10.0,SSE,10.4,-,N/A,,Clear,160,2012-11-20 17:55:00
11:15 AM,57.2,30.2,36,30.04,10.0,South,8.1,-,N/A,,Clear,170,2012-11-20 18:15:00
11:35 AM,60.8,32.0,34,30.03,10.0,West,12.7,17.3,N/A,,Partly Cloudy,270,2012-11-20 18:35:00
11:55 AM,59.0,32.0,36,30.01,10.0,West,11.5,-,N/A,,Scattered Clouds,280,2012-11-20 18:55:00
12:15 PM,60.8,32.0,34,30.00,10.0,WSW,4.6,-,N/A,,Mostly Cloudy,250,2012-11-20 19:15:00
12:35 PM,60.8,33.8,36,29.99,10.0,West,9.2,16.1,N/A,,Mostly Cloudy,260,2012-11-20 19:35:00
12:55 PM,60.8,32.0,34,29.98,10.0,WSW,6.9,-,N/A,,Overcast,250,2012-11-20 19:55:00
1:15 PM,60.8,32.0,34,29.98,10.0,SW,11.5,16.1,N/A,,Overcast,220,2012-11-20 20:15:00
1:35 PM,60.8,32.0,34,29.97,10.0,West,6.9,-,N/A,,Overcast,260,2012-11-20 20:35:00
1:55 PM,60.8,32.0,34,29.97,10.0,WNW,9.2,-,N/A,,Overcast,290,2012-11-20 20:55:00
2:15 PM,59.0,32.0,36,29.96,10.0,West,8.1,-,N/A,,Overcast,270,2012-11-20 21:15:00
2:35 PM,59.0,32.0,36,29.96,10.0,West,8.1,-,N/A,,Scattered Clouds,280,2012-11-20 21:35:00
2:55 PM,59.0,32.0,36,29.95,10.0,WSW,6.9,-,N/A,,Partly Cloudy,240,2012-11-20 21:55:00
3:15 PM,59.0,32.0,36,29.95,10.0,WSW,10.4,-,N/A,,Mostly Cloudy,250,2012-11-20 22:15:00
3:35 PM,57.2,32.0,38,29.96,10.0,West,11.5,16.1,N/A,,Overcast,260,2012-11-20 22:35:00
3:55 PM,57.2,32.0,38,29.96,10.0,West,9.2,-,N/A,,Mostly Cloudy,270,2012-11-20 22:55:00
4:15 PM,55.4,32.0,41,29.96,10.0,West,6.9,-,N/A,,Partly Cloudy,280,2012-11-20 23:15:00
4:35 PM,55.4,33.8,44,29.97,10.0,West,5.8,-,N/A,,Mostly Cloudy,280,2012-11-20 23:35:00
4:55 PM,55.4,32.0,41,29.96,10.0,West,4.6,-,N/A,,Scattered Clouds,270,2012-11-20 23:55:00
5:15 PM,51.8,32.0,47,29.96,10.0,Calm,Calm,-,N/A,,Partly Cloudy,0,2012-11-21 00:15:00
5:35 PM,53.6,33.8,47,29.96,10.0,West,6.9,-,N/A,,Clear,280,2012-11-21 00:35:00
5:55 PM,51.8,32.0,47,29.96,10.0,Calm,Calm,-,N/A,,Clear,0,2012-11-21 00:55:00
6:15 PM,51.8,33.8,50,29.96,10.0,Calm,Calm,-,N/A,,Clear,0,2012-11-21 01:15:00
6:35 PM,53.6,33.8,47,29.96,10.0,SSE,3.5,-,N/A,,Clear,150,2012-11-21 01:35:00
6:55 PM,48.2,33.8,58,29.96,10.0,WSW,3.5,-,N/A,,Clear,250,2012-11-21 01:55:00
7:15 PM,48.2,32.0,54,29.97,10.0,South,4.6,-,N/A,,Clear,170,2012-11-21 02:15:00
7:35 PM,51.8,33.8,50,29.97,10.0,Calm,Calm,-,N/A,,Clear,0,2012-11-21 02:35:00
7:55 PM,50.0,32.0,50,29.96,10.0,SE,5.8,-,N/A,,Clear,140,2012-11-21 02:55:00
8:15 PM,46.4,30.2,53,29.96,10.0,SSE,5.8,-,N/A,,Clear,160,2012-11-21 03:15:00
8:35 PM,46.4,32.0,57,29.97,10.0,SSE,4.6,-,N/A,,Clear,160,2012-11-21 03:35:00
8:55 PM,48.2,32.0,54,29.96,10.0,SSE,6.9,-,N/A,,Clear,150,2012-11-21 03:55:00
9:15 PM,46.4,32.0,57,29.96,10.0,South,5.8,-,N/A,,Clear,170,2012-11-21 04:15:00
9:35 PM,46.4,30.2,53,29.95,10.0,South,4.6,-,N/A,,Clear,190,2012-11-21 04:35:00
9:55 PM,44.6,30.2,57,29.94,10.0,South,9.2,-,N/A,,Clear,180,2012-11-21 04:55:00
10:15 PM,39.2,28.4,65,29.93,10.0,South,10.4,-,N/A,,Clear,170,2012-11-21 05:15:00
10:35 PM,39.2,28.4,65,29.93,10.0,SSE,9.2,-,N/A,,Clear,160,2012-11-21 05:35:00
10:55 PM,41.0,28.4,61,29.93,10.0,South,6.9,-,N/A,,Clear,180,2012-11-21 05:55:00
11:35 PM,39.2,28.4,65,29.93,10.0,South,9.2,-,N/A,,Clear,170,2012-11-21 06:35:00
11:55 PM,39.2,28.4,65,29.93,10.0,SSE,8.1,-,N/A,,Clear,160,2012-11-21 06:55:00